EDT,Max TemperatureF,Mean TemperatureF,Min TemperatureF,Max Dew PointF,MeanDew PointF,Min DewpointF,Max Humidity, Mean Humidity, Min Humidity, Max Sea Level PressureIn, Mean Sea Level PressureIn, Min Sea Level PressureIn, Max VisibilityMiles, Mean VisibilityMiles, Min VisibilityMiles, Max Wind SpeedMPH, Mean Wind SpeedMPH, Max Gust SpeedMPH,PrecipitationIn, CloudCover, Events, WindDirDegrees
2013-9-1,78,70,62,72,67,61,100,94,74,29.94,29.85,29.77,10,5,0,8,3,,0.13,7,,167
2013-9-2,64,62,59,64,63,59,100,99,94,29.94,29.87,29.76,10,4,0,15,8,22,2.34,8,Thunderstorm,64
2013-9-3,73,68,62,70,66,63,100,97,88,29.77,29.73,29.70,10,4,0,13,3,,0.57,7,,189
2013-9-4,75,67,59,64,59,55,100,79,50,29.89,29.80,29.73,10,9,0,16,7,22,0.00,1,,257
2013-9-5,64,58,50,57,51,41,100,79,55,30.13,29.97,29.85,10,10,5,10,4,16,0.27,5,,339
2013-9-6,64,52,41,54,43,37,100,68,37,30.21,30.14,30.04,10,10,10,13,5,18,0.00,0,,255
2013-9-7,69,60,50,57,53,46,94,78,43,30.05,29.92,29.79,10,10,10,15,6,18,0.00,3,,228
2013-9-8,66,56,44,59,49,37,100,74,42,30.06,29.81,29.70,10,10,5,14,6,23,0.32,4,,279
2013-9-9,62,50,39,54,44,37,100,72,42,30.20,30.14,30.06,10,10,9,17,7,21,0.00,0,,245
2013-9-10,64,60,57,61,57,54,100,89,77,30.13,30.09,30.05,10,8,0,15,8,22,0.00,5,,209
2013-9-11,78,68,59,72,65,57,100,91,74,30.07,29.98,29.90,10,5,0,15,3,18,0.21,4,Thunderstorm,211
2013-9-12,69,66,62,70,65,61,100,96,88,30.01,29.82,29.66,10,5,1,12,6,25,0.00,5,Thunderstorm,207
2013-9-13,68,64,60,66,62,59,100,97,88,29.70,29.63,29.59,10,6,0,13,4,20,1.11,8,,309
2013-9-14,69,61,53,61,56,52,100,85,60,30.00,29.85,29.69,10,9,1,13,3,16,0.20,4,,285
2013-9-15,64,55,46,54,49,45,100,81,52,30.12,30.06,30.01,10,10,10,15,4,18,0.00,0,,252
2013-9-16,62,54,46,55,49,36,100,82,62,30.25,30.04,29.96,10,10,2,10,4,17,0.00,3,,294
2013-9-17,62,50,39,48,40,30,100,69,45,30.38,30.32,30.26,10,10,10,9,4,,0.00,0,,307
2013-9-18,66,52,39,54,45,39,100,73,42,30.29,30.20,30.09,10,10,9,12,5,,0.00,0,,246
2013-9-19,73,58,42,52,47,39,100,71,40,30.12,30.07,30.02,10,10,8,13,5,17,0.00,0,,249
2013-9-20,71,58,44,57,51,43,100,79,46,30.11,30.06,30.02,10,9,0,8,4,,0.00,1,,124
2013-9-21,62,58,55,59,57,54,100,94,88,30.06,29.95,29.81,10,6,0,14,6,23,0.00,7,,179
2013-9-22,64,58,53,63,58,46,100,90,72,29.80,29.67,29.61,10,9,2,17,10,30,0.24,6,,204
2013-9-23,57,50,44,46,41,39,87,70,51,29.92,29.83,29.73,10,10,10,16,8,23,0.00,4,,291
2013-9-24,53,48,42,45,41,39,87,75,58,29.91,29.85,29.82,10,10,10,14,8,24,0.01,6,,282
2013-9-25,60,53,46,48,45,43,93,75,55,29.96,29.89,29.84,10,10,10,13,5,,0.00,7,,323
2013-9-26,62,54,46,50,47,45,93,73,55,30.12,30.03,29.96,10,10,10,13,5,21,0.00,6,,347
2013-9-27,69,60,51,54,50,48,94,74,49,30.24,30.19,30.12,10,10,5,10,5,16,0.00,3,,2
2013-9-28,64,54,44,54,49,43,100,83,64,30.34,30.30,30.24,10,10,2,9,3,,0.00,0,,164
2013-9-29,60,50,39,54,48,37,100,89,63,30.28,30.21,30.14,10,6,0,12,4,,0.00,2,,204
2013-9-30,60,50,39,52,48,39,100,90,63,30.15,30.07,29.97,10,9,0,9,2,,0.00,2,,119